Muncie, IN

9:05 AM EDT on September 19, 2017 (GMT -0400)
Delaware County-Johnson

Weather History for KMIE - February, 2011

Change the Weather History Date:

Saturday, February 5, 2011

  Actual Average Record
Temperature  
Mean Temperature 26 °F 27 °F  
Max Temperature 28 °F 35 °F 60 °F (1991)
Min Temperature 23 °F 20 °F -11 °F (1979)
Degree Days  
Heating Degree Days 39 38  
Month to date heating degree days 214 190  
Since 1 July heating degree days 3806 3583  
Cooling Degree Days 0 0  
Month to date cooling degree days 0 0  
Year to date cooling degree days 0 0  
Moisture  
Dew Point 23 °F    
Average Humidity 88    
Maximum Humidity 100    
Minimum Humidity 75    
Precipitation  
Precipitation 0.00 in 0.08 in 1.91 in (2008)
Month to date precipitation T 0.39  
Year to date precipitation 0.85 2.62  
Sea Level Pressure  
Sea Level Pressure 29.69 in    
Wind  
Wind Speed 7 mph (SW)    
Max Wind Speed 18 mph    
Max Gust Speed 21 mph    
Visibility 4 miles    
Events Fog , Snow    
T = Trace of Precipitation, MM = Missing Value Source: NWS Daily Summary

Daily Weather History Graph

Daily Weather History Graph

Search for Another Location

Airport or City:

Trip Planner

Search our weather history database for the weather conditions in past years. The results will help you decide how hot, cold, wet, or windy it might be!

Date:

Astronomy

Feb. 05, 2011 Rise Set
Actual Time 7:46 AM EST 6:04 PM EST
Civil Twilight 7:18 AM EST 6:33 PM EST
Nautical Twilight 6:46 AM EST 7:05 PM EST
Astronomical Twilight 6:14 AM EST 7:37 PM EST
Moon 8:38 AM EST (2/5) 8:53 PM EST (2/5)
Length of Visible Light 11h 14m
Length of Day
10h 18m
Waxing Crescent, 6% of the Moon is Illuminated
Feb 5
Waxing Crescent
Feb 11
First Quarter
Feb 18
Full
Feb 24
Last Quarter
Mar 4
New

Hourly Weather History & Observations

Time (EST) Temp. Windchill Dew Point Humidity Pressure Visibility Wind Dir Wind Speed Gust Speed Precip Events Conditions
12:53 AM 25.0 °F - 19.9 °F 81% 29.91 in 9.0 mi Calm Calm - N/A   Overcast
1:53 AM 25.0 °F 19.3 °F 19.9 °F 81% 29.89 in 8.0 mi South 4.6 mph - N/A   Overcast
2:53 AM 26.1 °F 21.9 °F 19.0 °F 75% 29.85 in 10.0 mi SSE 3.5 mph - N/A   Overcast
3:53 AM 26.1 °F 21.9 °F 19.0 °F 75% 29.83 in 10.0 mi SSE 3.5 mph - N/A   Overcast
4:53 AM 25.0 °F 20.7 °F 19.9 °F 81% 29.76 in 9.0 mi ESE 3.5 mph - N/A   Overcast
5:53 AM 26.1 °F 21.9 °F 21.0 °F 81% 29.73 in 9.0 mi NE 3.5 mph - N/A   Overcast
6:15 AM 26.6 °F 22.6 °F 21.2 °F 80% 29.74 in 1.8 mi SSW 3.5 mph - 0.00 in Snow Light Snow
6:24 AM 26.6 °F 22.6 °F 21.2 °F 80% 29.73 in 1.0 mi South 3.5 mph - 0.00 in Snow Light Snow
6:27 AM 26.6 °F 21.2 °F 21.2 °F 80% 29.73 in 0.8 mi SSW 4.6 mph - 0.00 in Snow Light Snow
6:53 AM 26.1 °F 21.9 °F 24.1 °F 92% 29.73 in 0.2 mi ESE 3.5 mph - 0.00 in Fog , Snow Heavy Snow
7:20 AM 26.6 °F 22.6 °F 24.8 °F 93% 29.68 in 0.5 mi ENE 3.5 mph - 0.00 in Fog , Snow Snow
7:34 AM 24.8 °F - 23.0 °F 93% 29.68 in 1.0 mi Calm Calm - 0.00 in Snow Light Snow
7:44 AM 24.8 °F - 24.8 °F 100% 29.67 in 1.5 mi Calm Calm - 0.00 in Snow Light Snow
7:53 AM 25.0 °F 20.7 °F 24.1 °F 96% 29.69 in 1.5 mi East 3.5 mph - 0.00 in Snow Light Snow
8:06 AM 26.6 °F 22.6 °F 24.8 °F 93% 29.65 in 0.5 mi East 3.5 mph - 0.00 in Fog , Snow Light Snow
8:13 AM 26.6 °F 19.1 °F 24.8 °F 93% 29.65 in 0.2 mi ESE 6.9 mph - 0.00 in Fog , Snow Heavy Snow
8:22 AM 26.6 °F 18.2 °F 24.8 °F 93% 29.64 in 0.2 mi ESE 8.1 mph - 0.00 in Fog , Snow Snow
8:32 AM 26.6 °F 21.2 °F 24.8 °F 93% 29.64 in 0.5 mi East 4.6 mph - 0.00 in Fog , Snow Light Snow
8:37 AM 26.6 °F 20.0 °F 24.8 °F 93% 29.63 in 1.0 mi East 5.8 mph - 0.00 in Snow Light Snow
8:53 AM 26.1 °F 17.6 °F 24.1 °F 92% 29.65 in 0.8 mi East 8.1 mph - 0.00 in Snow Light Snow
9:15 AM 26.6 °F 18.2 °F 24.8 °F 93% 29.61 in 1.0 mi East 8.1 mph - 0.00 in Snow Light Snow
9:53 AM 27.0 °F 18.0 °F 25.0 °F 92% 29.61 in 1.5 mi East 9.2 mph - 0.00 in Snow Light Snow
10:15 AM 26.6 °F 18.2 °F 24.8 °F 93% 29.59 in 1.0 mi East 8.1 mph - 0.00 in Snow Light Snow
10:22 AM 26.6 °F 20.0 °F 24.8 °F 93% 29.59 in 1.0 mi East 5.8 mph - 0.00 in Snow Light Snow
10:33 AM 28.4 °F - 24.8 °F 86% 29.60 in 1.0 mi Calm Calm - 0.00 in Snow Light Snow
10:41 AM 28.4 °F - 24.8 °F 86% 29.60 in 0.5 mi Calm Calm - 0.00 in Fog , Snow Snow
10:49 AM 28.4 °F - 26.6 °F 93% 29.60 in 0.2 mi Calm Calm - 0.00 in Fog , Snow Snow
10:53 AM 28.0 °F 24.2 °F 25.0 °F 88% 29.62 in 0.2 mi NNE 3.5 mph - 0.00 in Fog , Snow Snow
11:10 AM 28.4 °F 23.3 °F 24.8 °F 86% 29.59 in 0.2 mi NNE 4.6 mph - 0.00 in Fog , Snow Snow
11:53 AM 28.0 °F 20.0 °F 26.1 °F 92% 29.60 in 0.2 mi NNE 8.1 mph - 0.00 in Fog , Snow Heavy Snow
12:49 PM 28.4 °F 19.1 °F 26.6 °F 93% 29.55 in 0.5 mi North 10.4 mph - 0.00 in Fog , Snow Snow
12:53 PM 28.0 °F 18.6 °F 26.1 °F 92% 29.57 in 0.5 mi North 10.4 mph - 0.00 in Fog , Snow Snow
1:08 PM 28.4 °F 19.1 °F 24.8 °F 86% 29.55 in 0.5 mi NNW 10.4 mph - 0.00 in Fog , Snow Snow
1:53 PM 27.0 °F 18.7 °F 24.1 °F 89% 29.58 in 0.5 mi NW 8.1 mph - 0.00 in Fog , Snow Light Snow
2:44 PM 26.6 °F 14.3 °F 21.2 °F 80% 29.59 in 1.0 mi WNW 16.1 mph - 0.00 in Snow Light Snow
2:53 PM 26.1 °F 13.6 °F 21.9 °F 84% 29.62 in 1.5 mi WNW 16.1 mph - 0.00 in Snow Light Snow
3:14 PM 24.8 °F 14.0 °F 21.2 °F 86% 29.62 in 3.0 mi WNW 11.5 mph - 0.00 in Snow Light Snow
3:38 PM 24.8 °F 13.4 °F 21.2 °F 86% 29.64 in 8.0 mi West 12.7 mph - 0.00 in   Overcast
3:53 PM 24.1 °F 13.1 °F 19.9 °F 84% 29.67 in 9.0 mi WNW 11.5 mph - 0.00 in   Overcast
4:33 PM 24.8 °F 15.3 °F 19.4 °F 80% 29.67 in 3.0 mi West 9.2 mph - 0.00 in Snow Light Snow
4:40 PM 24.8 °F 14.0 °F 19.4 °F 80% 29.67 in 2.0 mi West 11.5 mph - 0.00 in Snow Light Snow
4:53 PM 24.1 °F 14.4 °F 19.9 °F 84% 29.70 in 3.0 mi WSW 9.2 mph - 0.00 in Snow Light Snow
5:23 PM 24.8 °F 15.3 °F 19.4 °F 80% 29.69 in 10.0 mi West 9.2 mph - 0.00 in   Overcast
5:45 PM 24.8 °F 14.6 °F 19.4 °F 80% 29.71 in 10.0 mi West 10.4 mph - 0.00 in   Overcast
5:53 PM 24.1 °F 14.4 °F 19.9 °F 84% 29.73 in 10.0 mi West 9.2 mph - 0.00 in   Overcast
6:53 PM 25.0 °F 16.3 °F 21.0 °F 85% 29.75 in 10.0 mi WSW 8.1 mph - N/A   Overcast
7:53 PM 25.0 °F 16.3 °F 19.9 °F 81% 29.79 in 10.0 mi WSW 8.1 mph - N/A   Mostly Cloudy
8:13 PM 24.8 °F 15.3 °F 21.2 °F 86% 29.77 in 10.0 mi WSW 9.2 mph - N/A   Mostly Cloudy
8:53 PM 25.0 °F 15.5 °F 21.0 °F 85% 29.81 in 10.0 mi WSW 9.2 mph - N/A   Overcast
9:53 PM 27.0 °F 18.7 °F 23.0 °F 85% 29.82 in 10.0 mi SW 8.1 mph - N/A   Overcast
10:53 PM 27.0 °F 18.7 °F 23.0 °F 85% 29.84 in 10.0 mi SW 8.1 mph - N/A   Overcast
11:53 PM 28.0 °F 18.1 °F 24.1 °F 85% 29.86 in 10.0 mi SW 11.5 mph - N/A   Overcast